Weather History for Erzincan, Turkey

Change the Weather History Date:

Tuesday, January 1, 2013

  Actual Average Record
Temperature  
Mean Temperature 26 °F -  
Max Temperature 38 °F 34 °F - ()
Min Temperature 13 °F 20 °F - ()
Degree Days  
Heating Degree Days 40    
Moisture  
Dew Point 15 °F    
Average Humidity 72    
Maximum Humidity 93    
Minimum Humidity 17    
Precipitation  
Precipitation 0.00 in 0.04 in - ()
Sea Level Pressure  
Sea Level Pressure 30.22 in    
Wind  
Wind Speed 1 mph ()    
Max Wind Speed 4 mph    
Max Gust Speed -    
Visibility 6.0 miles    
Events      
T = Trace of Precipitation, MM = Missing Value Source: Averaged Metar Reports

Daily Weather History Graph

Daily Weather History Graph

Search for Another Location

Airport:

Trip Planner

Search our weather history database for the weather conditions in past years. The results will help you decide how hot, cold, wet, or windy it might be!

Date:

Astronomy

Jan. 01, 2013 Rise Set
Actual Time 6:42 AM EET 4:08 PM EET
Civil Twilight 6:12 AM EET 4:38 PM EET
Nautical Twilight 5:38 AM EET 5:12 PM EET
Astronomical Twilight 5:06 AM EET 5:45 PM EET
Moon 8:16 PM EET (1/1) 8:44 AM EET (1/1)
Length of Visible Light 10h 25m
Length of Day
9h 25m
Waning Gibbous, 85% of the Moon is Illuminated
Jan 1
Waning Gibbous
Jan 5
Last Quarter
Jan 11
New
Jan 19
First Quarter
Jan 27
Full

Hourly Weather History & Observations

Time (EET) Temp. Windchill Dew Point Humidity Pressure Visibility Wind Dir Wind Speed Gust Speed Precip Events Conditions
12:50 AM 17.6 °F 12.3 °F 15.8 °F 93% 30.24 in - SSW 3.5 mph - N/A   Clear
1:50 AM 17.6 °F - 15.8 °F 93% 30.24 in - Calm Calm - N/A   Clear
2:50 AM 17.6 °F - 15.8 °F 93% 30.24 in - NE 2.3 mph - N/A   Clear
3:50 AM 14.0 °F - 12.2 °F 93% 30.24 in - Calm Calm - N/A   Clear
4:50 AM 15.8 °F - 14.0 °F 93% 30.21 in - Calm Calm - N/A   Clear
5:50 AM 15.8 °F - 12.2 °F 86% 30.21 in - North 1.2 mph - N/A   Clear
6:50 AM 15.8 °F - 12.2 °F 86% 30.24 in - NW 1.2 mph - N/A   Clear
7:50 AM 17.6 °F - 15.8 °F 93% 30.24 in - Calm Calm - N/A   Clear
8:00 AM 18 °F - 17 °F 92%  in 6 mi Calm Calm - -  
8:50 AM 26.6 °F - 17.6 °F 69% 30.24 in - Calm Calm - N/A   Clear
9:50 AM 28.4 °F - 15.8 °F 59% 30.24 in - Variable 1.2 mph - N/A   Clear
10:50 AM 30.2 °F - 14.0 °F 51% 30.21 in - Variable 1.2 mph - N/A   Clear
11:50 AM 33.8 °F - 10.4 °F 38% 30.21 in - Variable 1.2 mph - N/A   Clear
12:50 PM 35.6 °F - 10.4 °F 35% 30.18 in - Variable 2.3 mph - N/A   Clear
1:50 PM 37.4 °F - 10.4 °F 33% 30.18 in - Calm Calm - N/A   Clear
2:00 PM 37 °F - 8 °F 17%  in 6 mi Calm Calm - -   Clear
2:50 PM 37.4 °F - 10.4 °F 33% 30.18 in - Variable 1.2 mph - N/A   Clear
3:50 PM 33.8 °F - 12.2 °F 41% 30.18 in - Calm Calm - N/A   Clear
4:50 PM 28.4 °F - 17.6 °F 64% 30.21 in - Calm Calm - N/A   Clear
5:50 PM 26.6 °F - 19.4 °F 74% 30.21 in - Calm Calm - N/A   Clear
6:50 PM 23.0 °F - 19.4 °F 86% 30.21 in - ESE 1.2 mph - N/A   Clear
7:50 PM 23.0 °F - 19.4 °F 86% 30.24 in - Calm Calm - N/A   Clear
8:00 PM 23 °F - 20 °F 82%  in 6 mi Calm Calm - -  
8:50 PM 21.2 °F - 17.6 °F 86% 30.24 in - Calm Calm - N/A   Clear
9:50 PM 19.4 °F - 15.8 °F 86% 30.24 in - Calm Calm - N/A   Clear
10:50 PM 17.6 °F - 14.0 °F 86% 30.27 in - South 1.2 mph - N/A   Clear
11:50 PM 19.4 °F - 15.8 °F 86% 30.27 in - North 2.3 mph - N/A   Clear